Weather History for Bonaire, Bonaire

Change the Weather History Date:

Thursday, July 7, 2011

  Actual Average Record
Temperature  
Mean Temperature 84 °F -  
Max Temperature 88 °F 87 °F 91 °F (2005)
Min Temperature 80 °F 81 °F 80 °F (2000)
Cooling Degree Days 19    
Growing Degree Days 34 (Base 50)    
Moisture  
Dew Point 77 °F    
Average Humidity 78    
Maximum Humidity 89    
Minimum Humidity 58    
Precipitation  
Precipitation 0.00 in - - ()
Sea Level Pressure  
Sea Level Pressure 29.91 in    
Wind  
Wind Speed 14 mph ()    
Max Wind Speed 20 mph    
Max Gust Speed -    
Visibility 7.2 miles    
Events      
Averages and records for this station are not official NWS values.
T = Trace of Precipitation, MM = Missing Value Source: Averaged Metar Reports

Daily Weather History Graph

Daily Weather History Graph

Search for Another Location

Airport:

Trip Planner

Search our weather history database for the weather conditions in past years. The results will help you decide how hot, cold, wet, or windy it might be!

Date:

Astronomy

Jul. 07, 2011 Rise Set
Actual Time 6:13 AM AST 7:02 PM AST
Civil Twilight 5:50 AM AST 7:25 PM AST
Nautical Twilight 5:23 AM AST 7:52 PM AST
Astronomical Twilight 4:55 AM AST 8:20 PM AST
Moon 11:58 AM AST (7/7) No Moon Set
Length of Visible Light 13h 34m
Length of Day
12h 48m
Waxing Crescent, 43% of the Moon is Illuminated
Jul 7
Waxing Crescent
Jul 8
First Quarter
Jul 15
Full
Jul 23
Last Quarter
Jul 30
New

Hourly Weather History & Observations

Time (AST) Temp. Heat Index Dew Point Humidity Pressure Visibility Wind Dir Wind Speed Gust Speed Precip Events Conditions
12:00 AM 82.4 °F 90.9 °F 77.0 °F 84% 29.92 in - ESE 15.0 mph - N/A   Unknown
1:00 AM 80.6 °F 87.1 °F 77.0 °F 89% 29.89 in - East 12.7 mph - N/A   Unknown
2:00 AM 81 °F - 77 °F 83%  in 19 mi ESE 13.8 mph - -   Clear
2:00 AM 82.4 °F 90.9 °F 77.0 °F 84% 29.89 in - East 16.1 mph - N/A   Unknown
3:00 AM 80.6 °F 87.1 °F 77.0 °F 89% 29.89 in - East 15.0 mph - N/A   Unknown
4:00 AM 80.6 °F 87.1 °F 77.0 °F 89% 29.89 in - ESE 12.7 mph - N/A   Unknown
5:00 AM 81 °F - 76 °F 82%  in - ESE 15.0 mph - -   Clear
5:00 AM 80.6 °F 87.1 °F 77.0 °F 89% 29.89 in - ESE 15.0 mph - N/A   Unknown
6:00 AM 80.6 °F 87.1 °F 77.0 °F 89% 29.89 in - ESE 13.8 mph - N/A   Unknown
7:00 AM 82.4 °F 90.9 °F 77.0 °F 84% 29.89 in - ESE 13.8 mph - N/A   Unknown
8:00 AM 84 °F - 77 °F 75% 29.94 in 22 mi SE 16.1 mph - -   Partly Cloudy
8:00 AM 84.2 °F 94.1 °F 77.0 °F 79% 29.92 in 6.2 mi ESE 17.3 mph - N/A   Scattered Clouds
9:00 AM 86.0 °F 96.9 °F 77.0 °F 74% 29.92 in 6.2 mi ESE 17.3 mph - N/A   Scattered Clouds
11:00 AM 87 °F - 76 °F 64% 29.95 in 22 mi ESE 16.1 mph - -   Scattered Clouds
11:00 AM 87.8 °F 99.7 °F 77.0 °F 70% 29.95 in 6.2 mi ESE 18.4 mph - N/A   Scattered Clouds
12:00 PM 87.8 °F 99.7 °F 77.0 °F 70% 29.92 in 6.2 mi East 17.3 mph - N/A   Partly Cloudy
1:00 PM 87.8 °F 97.6 °F 75.2 °F 66% 29.92 in 6.2 mi ESE 19.6 mph - N/A   Partly Cloudy
2:00 PM 88 °F - 75 °F 58%  in 22 mi ESE 17.3 mph - -   Clear
2:00 PM 84.2 °F 94.1 °F 77.0 °F 79% 29.89 in - ESE 19.6 mph - N/A   Unknown
3:00 PM 87.8 °F 97.6 °F 75.2 °F 66% 29.89 in 6.2 mi ESE 18.4 mph - N/A   Partly Cloudy
4:00 PM 87.8 °F 97.6 °F 75.2 °F 66% 29.86 in 6.2 mi East 18.4 mph - N/A   Partly Cloudy
5:00 PM 87 °F - 76 °F 63% 29.87 in 22 mi East 16.1 mph - -   Scattered Clouds
5:00 PM 87.8 °F 99.7 °F 77.0 °F 70% 29.86 in 6.2 mi East 16.1 mph - N/A   Partly Cloudy
6:00 PM 86.0 °F 96.9 °F 77.0 °F 74% 29.86 in - East 17.3 mph - N/A   Unknown
7:00 PM 82.4 °F 90.9 °F 77.0 °F 84% 29.89 in 6.2 mi East 15.0 mph - N/A   Partly Cloudy
8:00 PM 82 °F - 77 °F 79% 29.92 in 22 mi East 18.4 mph - -   Scattered Clouds
8:00 PM 82.4 °F 90.9 °F 77.0 °F 84% 29.89 in 6.2 mi East 16.1 mph - N/A   Partly Cloudy
9:00 PM 82.4 °F 90.9 °F 77.0 °F 84% 29.95 in - East 15.0 mph - N/A   Unknown
10:00 PM 82.4 °F 90.9 °F 77.0 °F 84% 29.95 in - East 15.0 mph - N/A   Unknown
11:00 PM 82 °F - 77 °F 80%  in 6 mi East 15.0 mph - -   Clear
11:00 PM 82.4 °F 90.9 °F 77.0 °F 84% 29.98 in 6.2 mi East 15.0 mph - N/A   Partly Cloudy